Year,Month,Day,Hour,Minute,Value (Times are PST for temperature in C)
2013,07,26,00,00,15.80
2013,07,26,00,01,15.80
2013,07,26,00,02,15.80
2013,07,26,00,03,15.80
2013,07,26,00,04,15.80
2013,07,26,00,05,15.70
2013,07,26,00,06,15.70
2013,07,26,00,07,15.70
2013,07,26,00,08,15.70
2013,07,26,00,09,15.70
2013,07,26,00,10,15.70
2013,07,26,00,11,15.70
2013,07,26,00,12,15.60
2013,07,26,00,13,15.60
2013,07,26,00,14,15.60
2013,07,26,00,15,15.60
2013,07,26,00,16,15.60
2013,07,26,00,17,15.50
2013,07,26,00,18,15.50
2013,07,26,00,19,15.50
2013,07,26,00,20,15.50
2013,07,26,00,21,15.40
2013,07,26,00,22,15.40
2013,07,26,00,23,15.40
2013,07,26,00,24,15.40
2013,07,26,00,25,15.40
2013,07,26,00,26,15.30
2013,07,26,00,27,15.30
2013,07,26,00,28,15.30
2013,07,26,00,29,15.30
2013,07,26,00,30,15.30
2013,07,26,00,31,15.30
2013,07,26,00,32,15.30
2013,07,26,00,33,15.30
2013,07,26,00,34,15.30
2013,07,26,00,35,15.30
2013,07,26,00,36,15.30
2013,07,26,00,37,15.30
2013,07,26,00,38,15.30
2013,07,26,00,39,15.30
2013,07,26,00,40,15.30
2013,07,26,00,41,15.30
2013,07,26,00,42,15.30
2013,07,26,00,43,15.30
2013,07,26,00,44,15.30
2013,07,26,00,45,15.30
2013,07,26,00,46,15.30
2013,07,26,00,47,15.30
2013,07,26,00,48,15.30
2013,07,26,00,49,15.30
2013,07,26,00,50,15.30
2013,07,26,00,51,15.30
2013,07,26,00,52,15.30
2013,07,26,00,53,15.20
2013,07,26,00,54,15.20
2013,07,26,00,55,15.20
2013,07,26,00,56,15.10
2013,07,26,00,57,15.10
2013,07,26,00,58,15.00
2013,07,26,00,59,15.00
2013,07,26,01,00,15.00
2013,07,26,01,01,15.00
2013,07,26,01,02,15.00
2013,07,26,01,03,15.00
2013,07,26,01,04,15.00
2013,07,26,01,05,15.00
2013,07,26,01,06,15.00
2013,07,26,01,07,15.00
2013,07,26,01,08,15.00
2013,07,26,01,09,15.00
2013,07,26,01,10,15.00
2013,07,26,01,11,15.00
2013,07,26,01,12,15.00
2013,07,26,01,13,15.00
2013,07,26,01,14,15.00
2013,07,26,01,15,15.00
2013,07,26,01,16,15.00
2013,07,26,01,17,15.00
2013,07,26,01,18,15.00
2013,07,26,01,19,15.00
2013,07,26,01,20,15.00
2013,07,26,01,21,15.00
2013,07,26,01,22,15.00
2013,07,26,01,23,15.00
2013,07,26,01,24,14.90
2013,07,26,01,25,14.90
2013,07,26,01,26,14.80
2013,07,26,01,27,14.80
2013,07,26,01,28,14.70
2013,07,26,01,29,14.70
2013,07,26,01,30,14.70
2013,07,26,01,31,14.60
2013,07,26,01,32,14.60
2013,07,26,01,33,14.60
2013,07,26,01,34,14.60
2013,07,26,01,35,14.50
2013,07,26,01,36,14.50
2013,07,26,01,37,14.50
2013,07,26,01,38,14.40
2013,07,26,01,39,14.40
2013,07,26,01,40,14.40
2013,07,26,01,41,14.30
2013,07,26,01,42,14.30
2013,07,26,01,43,14.30
2013,07,26,01,44,14.30
2013,07,26,01,45,14.30
2013,07,26,01,46,14.30
2013,07,26,01,47,14.20
2013,07,26,01,48,14.20
2013,07,26,01,49,14.20
2013,07,26,01,50,14.20
2013,07,26,01,51,14.20
2013,07,26,01,52,14.20
2013,07,26,01,53,14.20
2013,07,26,01,54,14.20
2013,07,26,01,55,14.20
2013,07,26,01,56,14.20
2013,07,26,01,57,14.20
2013,07,26,01,58,14.20
2013,07,26,01,59,14.20
2013,07,26,02,00,14.20
2013,07,26,02,01,14.20
2013,07,26,02,02,14.20
2013,07,26,02,03,14.20
2013,07,26,02,04,14.10
2013,07,26,02,05,14.10
2013,07,26,02,06,14.10
2013,07,26,02,07,14.10
2013,07,26,02,08,14.10
2013,07,26,02,09,14.10
2013,07,26,02,10,14.10
2013,07,26,02,11,14.00
2013,07,26,02,12,14.00
2013,07,26,02,13,14.00
2013,07,26,02,14,14.00
2013,07,26,02,15,14.00
2013,07,26,02,16,14.00
2013,07,26,02,17,14.00
2013,07,26,02,18,14.00
2013,07,26,02,19,14.00
2013,07,26,02,20,14.00
2013,07,26,02,21,14.00
2013,07,26,02,22,14.00
2013,07,26,02,23,14.00
2013,07,26,02,24,14.00
2013,07,26,02,25,14.00
2013,07,26,02,26,14.00
2013,07,26,02,27,14.00
2013,07,26,02,28,14.00
2013,07,26,02,29,13.90
2013,07,26,02,30,13.90
2013,07,26,02,31,13.90
2013,07,26,02,32,13.90
2013,07,26,02,33,13.90
2013,07,26,02,34,13.90
2013,07,26,02,35,13.90
2013,07,26,02,36,13.90
2013,07,26,02,37,13.90
2013,07,26,02,38,13.90
2013,07,26,02,39,13.90
2013,07,26,02,40,13.90
2013,07,26,02,41,13.90
2013,07,26,02,42,13.90
2013,07,26,02,43,13.90
2013,07,26,02,44,13.90
2013,07,26,02,45,13.90
2013,07,26,02,46,13.90
2013,07,26,02,47,13.90
2013,07,26,02,48,13.90
2013,07,26,02,49,13.90
2013,07,26,02,50,13.90
2013,07,26,02,51,13.90
2013,07,26,02,52,14.00
2013,07,26,02,53,14.00
2013,07,26,02,54,14.00
2013,07,26,02,55,14.00
2013,07,26,02,56,14.00
2013,07,26,02,57,14.00
2013,07,26,02,58,14.00
2013,07,26,02,59,14.00
2013,07,26,03,00,14.00
2013,07,26,03,01,14.00
2013,07,26,03,02,14.00
2013,07,26,03,03,14.00
2013,07,26,03,04,14.00
2013,07,26,03,05,14.10
2013,07,26,03,06,14.10
2013,07,26,03,07,14.10
2013,07,26,03,08,14.10
2013,07,26,03,09,14.10
2013,07,26,03,10,14.20
2013,07,26,03,11,14.20
2013,07,26,03,12,14.20
2013,07,26,03,13,14.20
2013,07,26,03,14,14.20
2013,07,26,03,15,14.20
2013,07,26,03,16,14.20
2013,07,26,03,17,14.20
2013,07,26,03,18,14.20
2013,07,26,03,19,14.20
2013,07,26,03,20,14.20
2013,07,26,03,21,14.20
2013,07,26,03,22,14.20
2013,07,26,03,23,14.10
2013,07,26,03,24,14.10
2013,07,26,03,25,14.10
2013,07,26,03,26,14.10
2013,07,26,03,27,14.10
2013,07,26,03,28,14.10
2013,07,26,03,29,14.10
2013,07,26,03,30,14.00
2013,07,26,03,31,14.00
2013,07,26,03,32,13.90
2013,07,26,03,33,13.90
2013,07,26,03,34,13.90
2013,07,26,03,35,13.80
2013,07,26,03,36,13.80
2013,07,26,03,37,13.80
2013,07,26,03,38,13.80
2013,07,26,03,39,13.70
2013,07,26,03,40,13.70
2013,07,26,03,41,13.70
2013,07,26,03,42,13.70
2013,07,26,03,43,13.70
2013,07,26,03,44,13.70
2013,07,26,03,45,13.70
2013,07,26,03,46,13.70
2013,07,26,03,47,13.70
2013,07,26,03,48,13.80
2013,07,26,03,49,13.80
2013,07,26,03,50,13.80
2013,07,26,03,51,13.90
2013,07,26,03,52,13.90
2013,07,26,03,53,13.90
2013,07,26,03,54,14.00
2013,07,26,03,55,14.00
2013,07,26,03,56,14.00
2013,07,26,03,57,14.00
2013,07,26,03,58,14.00
2013,07,26,03,59,14.00
2013,07,26,04,00,14.00
2013,07,26,04,01,13.90
2013,07,26,04,02,13.90
2013,07,26,04,03,13.80
2013,07,26,04,04,13.80
2013,07,26,04,05,13.70
2013,07,26,04,06,13.60
2013,07,26,04,07,13.50
2013,07,26,04,08,13.50
2013,07,26,04,09,13.40
2013,07,26,04,10,13.40
2013,07,26,04,11,13.30
2013,07,26,04,12,13.30
2013,07,26,04,13,13.30
2013,07,26,04,14,13.30
2013,07,26,04,15,13.20
2013,07,26,04,16,13.20
2013,07,26,04,17,13.20
2013,07,26,04,18,13.10
2013,07,26,04,19,13.10
2013,07,26,04,20,13.10
2013,07,26,04,21,13.10
2013,07,26,04,22,13.00
2013,07,26,04,23,13.00
2013,07,26,04,24,13.00
2013,07,26,04,25,12.90
2013,07,26,04,26,12.90
2013,07,26,04,27,12.90
2013,07,26,04,28,12.90
2013,07,26,04,29,12.90
2013,07,26,04,30,12.90
2013,07,26,04,31,12.90
2013,07,26,04,32,12.90
2013,07,26,04,33,12.80
2013,07,26,04,34,12.80
2013,07,26,04,35,12.80
2013,07,26,04,36,12.80
2013,07,26,04,37,12.80
2013,07,26,04,38,12.80
2013,07,26,04,39,12.80
2013,07,26,04,40,12.80
2013,07,26,04,41,12.80
2013,07,26,04,42,12.80
2013,07,26,04,43,12.80
2013,07,26,04,44,12.70
2013,07,26,04,45,12.70
2013,07,26,04,46,12.70
2013,07,26,04,47,12.70
2013,07,26,04,48,12.70
2013,07,26,04,49,12.70
2013,07,26,04,50,12.70
2013,07,26,04,51,12.70
2013,07,26,04,52,12.70
2013,07,26,04,53,12.70
2013,07,26,04,54,12.70
2013,07,26,04,55,12.70
2013,07,26,04,56,12.70
2013,07,26,04,57,12.70
2013,07,26,04,58,12.70
2013,07,26,04,59,12.70
2013,07,26,05,00,12.70
2013,07,26,05,01,12.70
2013,07,26,05,02,12.70
2013,07,26,05,03,12.70
2013,07,26,05,04,12.70
2013,07,26,05,05,12.70
2013,07,26,05,06,12.80
2013,07,26,05,07,12.80
2013,07,26,05,08,12.80
2013,07,26,05,09,12.80
2013,07,26,05,10,12.80
2013,07,26,05,11,12.80
2013,07,26,05,12,12.80
2013,07,26,05,13,12.80
2013,07,26,05,14,12.80
2013,07,26,05,15,12.80
2013,07,26,05,16,12.80
2013,07,26,05,17,12.80
2013,07,26,05,18,12.80
2013,07,26,05,19,12.80
2013,07,26,05,20,12.80
2013,07,26,05,21,12.80
2013,07,26,05,22,12.70
2013,07,26,05,23,12.70
2013,07,26,05,24,12.70
2013,07,26,05,25,12.70
2013,07,26,05,26,12.70
2013,07,26,05,27,12.70
2013,07,26,05,28,12.70
2013,07,26,05,29,12.70
2013,07,26,05,30,12.70
2013,07,26,05,31,12.70
2013,07,26,05,32,12.70
2013,07,26,05,33,12.70
2013,07,26,05,34,12.70
2013,07,26,05,35,12.70
2013,07,26,05,36,12.70
2013,07,26,05,37,12.70
2013,07,26,05,38,12.70
2013,07,26,05,39,12.70
2013,07,26,05,40,12.60
2013,07,26,05,41,12.60
2013,07,26,05,42,12.60
2013,07,26,05,43,12.50
2013,07,26,05,44,12.50
2013,07,26,05,45,12.50
2013,07,26,05,46,12.40
2013,07,26,05,47,12.40
2013,07,26,05,48,12.40
2013,07,26,05,49,12.40
2013,07,26,05,50,12.40
2013,07,26,05,51,12.30
2013,07,26,05,52,12.30
2013,07,26,05,53,12.30
2013,07,26,05,54,12.30
2013,07,26,05,55,12.30
2013,07,26,05,56,12.30
2013,07,26,05,57,12.30
2013,07,26,05,58,12.20
2013,07,26,05,59,12.20
2013,07,26,06,00,12.20
2013,07,26,06,01,12.20
2013,07,26,06,02,12.20
2013,07,26,06,03,12.20
2013,07,26,06,04,12.20
2013,07,26,06,05,12.20
2013,07,26,06,06,12.20
2013,07,26,06,07,12.10
2013,07,26,06,08,12.10
2013,07,26,06,09,12.10
2013,07,26,06,10,12.10
2013,07,26,06,11,12.10
2013,07,26,06,12,12.10
2013,07,26,06,13,12.10
2013,07,26,06,14,12.10
2013,07,26,06,15,12.00
2013,07,26,06,16,12.10
2013,07,26,06,17,12.10
2013,07,26,06,18,12.10
2013,07,26,06,19,12.10
2013,07,26,06,20,12.10
2013,07,26,06,21,12.10
2013,07,26,06,22,12.10
2013,07,26,06,23,12.10
2013,07,26,06,24,12.10
2013,07,26,06,25,12.10
2013,07,26,06,26,12.10
2013,07,26,06,27,12.10
2013,07,26,06,28,12.10
2013,07,26,06,29,12.10
2013,07,26,06,30,12.10
2013,07,26,06,31,12.10
2013,07,26,06,32,12.20
2013,07,26,06,33,12.20
2013,07,26,06,34,12.20
2013,07,26,06,35,12.20
2013,07,26,06,36,12.20
2013,07,26,06,37,12.20
2013,07,26,06,38,12.20
2013,07,26,06,39,12.20
2013,07,26,06,40,12.20
2013,07,26,06,41,12.20
2013,07,26,06,42,12.20
2013,07,26,06,43,12.30
2013,07,26,06,44,12.30
2013,07,26,06,45,12.30
2013,07,26,06,46,12.30
2013,07,26,06,47,12.30
2013,07,26,06,48,12.40
2013,07,26,06,49,12.40
2013,07,26,06,50,12.40
2013,07,26,06,51,12.40
2013,07,26,06,52,12.40
2013,07,26,06,53,12.40
2013,07,26,06,54,12.50
2013,07,26,06,55,12.50
2013,07,26,06,56,12.50
2013,07,26,06,57,12.50
2013,07,26,06,58,12.50
2013,07,26,06,59,12.50
2013,07,26,07,00,12.50
2013,07,26,07,01,12.50
2013,07,26,07,02,12.50
2013,07,26,07,03,12.50
2013,07,26,07,04,12.50
2013,07,26,07,05,12.50
2013,07,26,07,06,12.50
2013,07,26,07,07,12.60
2013,07,26,07,08,12.60
2013,07,26,07,09,12.60
2013,07,26,07,10,12.60
2013,07,26,07,11,12.70
2013,07,26,07,12,12.70
2013,07,26,07,13,12.70
2013,07,26,07,14,12.80
2013,07,26,07,15,12.80
2013,07,26,07,16,12.80
2013,07,26,07,17,12.90
2013,07,26,07,18,12.90
2013,07,26,07,19,12.90
2013,07,26,07,20,12.90
2013,07,26,07,21,12.90
2013,07,26,07,22,12.90
2013,07,26,07,23,13.00
2013,07,26,07,24,13.00
2013,07,26,07,25,13.00
2013,07,26,07,26,13.00
2013,07,26,07,27,13.10
2013,07,26,07,28,13.10
2013,07,26,07,29,13.10
2013,07,26,07,30,13.10
2013,07,26,07,31,13.20
2013,07,26,07,32,13.20
2013,07,26,07,33,13.30
2013,07,26,07,34,13.30
2013,07,26,07,35,13.30
2013,07,26,07,36,13.30
2013,07,26,07,37,13.40
2013,07,26,07,38,13.40
2013,07,26,07,39,13.50
2013,07,26,07,40,13.50
2013,07,26,07,41,13.50
2013,07,26,07,42,13.60
2013,07,26,07,43,13.60
2013,07,26,07,44,13.70
2013,07,26,07,45,13.70
2013,07,26,07,46,13.80
2013,07,26,07,47,13.90
2013,07,26,07,48,14.00
2013,07,26,07,49,14.10
2013,07,26,07,50,14.20
2013,07,26,07,51,14.30
2013,07,26,07,52,14.40
2013,07,26,07,53,14.50
2013,07,26,07,54,14.60
2013,07,26,07,55,14.60
2013,07,26,07,56,14.70
2013,07,26,07,57,14.80
2013,07,26,07,58,14.90
2013,07,26,07,59,15.00
2013,07,26,08,00,15.00
2013,07,26,08,01,15.00
2013,07,26,08,02,15.00
2013,07,26,08,03,15.20
2013,07,26,08,04,15.30
2013,07,26,08,05,15.30
2013,07,26,08,06,15.40
2013,07,26,08,07,15.50
2013,07,26,08,08,15.60
2013,07,26,08,09,15.70
2013,07,26,08,10,15.80
2013,07,26,08,11,15.90
2013,07,26,08,12,16.00
2013,07,26,08,13,16.10
2013,07,26,08,14,16.20
2013,07,26,08,15,16.30
2013,07,26,08,16,16.40
2013,07,26,08,17,16.50
2013,07,26,08,18,16.60
2013,07,26,08,19,16.70
2013,07,26,08,20,16.80
2013,07,26,08,21,16.90
2013,07,26,08,22,17.00
2013,07,26,08,23,17.00
2013,07,26,08,24,17.10
2013,07,26,08,25,17.10
2013,07,26,08,26,17.20
2013,07,26,08,27,17.20
2013,07,26,08,28,17.20
2013,07,26,08,29,17.30
2013,07,26,08,30,17.30
2013,07,26,08,31,17.30
2013,07,26,08,32,17.40
2013,07,26,08,33,17.40
2013,07,26,08,34,17.40
2013,07,26,08,35,17.50
2013,07,26,08,36,17.60
2013,07,26,08,37,17.60
2013,07,26,08,38,17.70
2013,07,26,08,39,17.70
2013,07,26,08,40,17.80
2013,07,26,08,41,17.80
2013,07,26,08,42,17.90
2013,07,26,08,43,18.00
2013,07,26,08,44,18.00
2013,07,26,08,45,18.10
2013,07,26,08,46,18.20
2013,07,26,08,47,18.20
2013,07,26,08,48,18.20
2013,07,26,08,49,18.20
2013,07,26,08,50,18.20
2013,07,26,08,51,18.30
2013,07,26,08,52,18.30
2013,07,26,08,53,18.40
2013,07,26,08,54,18.50
2013,07,26,08,55,18.70
2013,07,26,08,56,18.80
2013,07,26,08,57,18.90
2013,07,26,08,58,19.00
2013,07,26,08,59,19.10
2013,07,26,09,00,19.20
2013,07,26,09,01,19.20
2013,07,26,09,02,19.10
2013,07,26,09,03,19.10
2013,07,26,09,04,19.10
2013,07,26,09,05,19.10
2013,07,26,09,06,19.10
2013,07,26,09,07,19.20
2013,07,26,09,08,19.30
2013,07,26,09,09,19.40
2013,07,26,09,10,19.50
2013,07,26,09,11,19.60
2013,07,26,09,12,19.70
2013,07,26,09,13,19.80
2013,07,26,09,14,19.90
2013,07,26,09,15,20.00
2013,07,26,09,16,20.00
2013,07,26,09,17,20.10
2013,07,26,09,18,20.10
2013,07,26,09,19,20.10
2013,07,26,09,20,20.20
2013,07,26,09,21,20.20
2013,07,26,09,22,20.20
2013,07,26,09,23,20.20
2013,07,26,09,24,20.10
2013,07,26,09,25,20.00
2013,07,26,09,26,19.90
2013,07,26,09,27,19.90
2013,07,26,09,28,19.90
2013,07,26,09,29,19.90
2013,07,26,09,30,19.90
2013,07,26,09,31,20.00
2013,07,26,09,32,20.00
2013,07,26,09,33,20.10
2013,07,26,09,34,20.10
2013,07,26,09,35,20.10
2013,07,26,09,36,20.10
2013,07,26,09,37,20.10
2013,07,26,09,38,20.10
2013,07,26,09,39,20.20
2013,07,26,09,40,20.20
2013,07,26,09,41,20.30
2013,07,26,09,42,20.30
2013,07,26,09,43,20.30
2013,07,26,09,44,20.30
2013,07,26,09,45,20.30
2013,07,26,09,46,20.40
2013,07,26,09,47,20.40
2013,07,26,09,48,20.30
2013,07,26,09,49,20.30
2013,07,26,09,50,20.30
2013,07,26,09,51,20.30
2013,07,26,09,52,20.30
2013,07,26,09,53,20.40
2013,07,26,09,54,20.30
2013,07,26,09,55,20.40
2013,07,26,09,56,20.40
2013,07,26,09,57,20.40
2013,07,26,09,58,20.50
2013,07,26,09,59,20.50
2013,07,26,10,00,20.60
2013,07,26,10,01,20.60
2013,07,26,10,02,20.50
2013,07,26,10,03,20.50
2013,07,26,10,04,20.50
2013,07,26,10,05,20.60
2013,07,26,10,06,20.60
2013,07,26,10,07,20.70
2013,07,26,10,08,20.70
2013,07,26,10,09,20.80
2013,07,26,10,10,20.90
2013,07,26,10,11,20.90
2013,07,26,10,12,20.90
2013,07,26,10,13,20.90
2013,07,26,10,14,20.90
2013,07,26,10,15,20.70
2013,07,26,10,16,20.60
2013,07,26,10,17,20.60
2013,07,26,10,18,20.50
2013,07,26,10,19,20.40
2013,07,26,10,20,20.20
2013,07,26,10,21,20.10
2013,07,26,10,22,20.00
2013,07,26,10,23,20.00
2013,07,26,10,24,20.00
2013,07,26,10,25,20.10
2013,07,26,10,26,20.10
2013,07,26,10,27,20.20
2013,07,26,10,28,20.20
2013,07,26,10,29,20.20
2013,07,26,10,30,20.20
2013,07,26,10,31,20.10
2013,07,26,10,32,20.10
2013,07,26,10,33,20.10
2013,07,26,10,34,20.00
2013,07,26,10,35,20.00
2013,07,26,10,36,19.90
2013,07,26,10,37,20.00
2013,07,26,10,38,20.10
2013,07,26,10,39,20.20
2013,07,26,10,40,20.30
2013,07,26,10,41,20.40
2013,07,26,10,42,20.50
2013,07,26,10,43,20.60
2013,07,26,10,44,20.60
2013,07,26,10,45,20.50
2013,07,26,10,46,20.50
2013,07,26,10,47,20.40
2013,07,26,10,48,20.40
2013,07,26,10,49,20.30
2013,07,26,10,50,20.30
2013,07,26,10,51,20.30
2013,07,26,10,52,20.30
2013,07,26,10,53,20.40
2013,07,26,10,54,20.40
2013,07,26,10,55,20.40
2013,07,26,10,56,20.40
2013,07,26,10,57,20.40
2013,07,26,10,58,20.50
2013,07,26,10,59,20.50
2013,07,26,11,00,20.40
2013,07,26,11,01,20.40
2013,07,26,11,02,20.50
2013,07,26,11,03,20.40
2013,07,26,11,04,20.50
2013,07,26,11,05,20.60
2013,07,26,11,06,20.60
2013,07,26,11,07,20.60
2013,07,26,11,08,20.60
2013,07,26,11,09,20.60
2013,07,26,11,10,20.60
2013,07,26,11,11,20.60
2013,07,26,11,12,20.60
2013,07,26,11,13,20.60
2013,07,26,11,14,20.70
2013,07,26,11,15,20.70
2013,07,26,11,16,20.60
2013,07,26,11,17,20.70
2013,07,26,11,18,20.70
2013,07,26,11,19,20.70
2013,07,26,11,20,20.80
2013,07,26,11,21,20.80
2013,07,26,11,22,20.80
2013,07,26,11,23,20.80
2013,07,26,11,24,20.70
2013,07,26,11,25,20.70
2013,07,26,11,26,20.60
2013,07,26,11,27,20.60
2013,07,26,11,28,20.60
2013,07,26,11,29,20.60
2013,07,26,11,30,20.60
2013,07,26,11,31,20.60
2013,07,26,11,32,20.60
2013,07,26,11,33,20.50
2013,07,26,11,34,20.50
2013,07,26,11,35,20.40
2013,07,26,11,36,20.30
2013,07,26,11,37,20.30
2013,07,26,11,38,20.40
2013,07,26,11,39,20.40
2013,07,26,11,40,20.40
2013,07,26,11,41,20.40
2013,07,26,11,42,20.30
2013,07,26,11,43,20.30
2013,07,26,11,44,20.40
2013,07,26,11,45,20.50
2013,07,26,11,46,20.50
2013,07,26,11,47,20.60
2013,07,26,11,48,20.70
2013,07,26,11,49,20.70
2013,07,26,11,50,20.60
2013,07,26,11,51,20.60
2013,07,26,11,52,20.50
2013,07,26,11,53,20.50
2013,07,26,11,54,20.50
2013,07,26,11,55,20.40
2013,07,26,11,56,20.40
2013,07,26,11,57,20.30
2013,07,26,11,58,20.30
2013,07,26,11,59,20.30
2013,07,26,12,00,20.30
2013,07,26,12,01,20.30
2013,07,26,12,02,20.20
2013,07,26,12,03,20.20
2013,07,26,12,04,20.20
2013,07,26,12,05,20.20
2013,07,26,12,06,20.10
2013,07,26,12,07,20.00
2013,07,26,12,08,20.00
2013,07,26,12,09,20.00
2013,07,26,12,10,20.00
2013,07,26,12,11,19.90
2013,07,26,12,12,20.00
2013,07,26,12,13,20.00
2013,07,26,12,14,20.00
2013,07,26,12,15,20.10
2013,07,26,12,16,20.20
2013,07,26,12,17,20.30
2013,07,26,12,18,20.40
2013,07,26,12,19,20.50
2013,07,26,12,20,20.60
2013,07,26,12,21,20.70
2013,07,26,12,22,20.80
2013,07,26,12,23,20.80
2013,07,26,12,24,20.80
2013,07,26,12,25,20.90
2013,07,26,12,26,21.00
2013,07,26,12,27,20.90
2013,07,26,12,28,20.80
2013,07,26,12,29,20.70
2013,07,26,12,30,20.60
2013,07,26,12,31,20.60
2013,07,26,12,32,20.60
2013,07,26,12,33,20.60
2013,07,26,12,34,20.50
2013,07,26,12,35,20.40
2013,07,26,12,36,20.40
2013,07,26,12,37,20.40
2013,07,26,12,38,20.40
2013,07,26,12,39,20.50
2013,07,26,12,40,20.60
2013,07,26,12,41,20.60
2013,07,26,12,42,20.60
2013,07,26,12,43,20.70
2013,07,26,12,44,20.70
2013,07,26,12,45,20.80
2013,07,26,12,46,20.80
2013,07,26,12,47,20.90
2013,07,26,12,48,20.90
2013,07,26,12,49,21.00
2013,07,26,12,50,21.10
2013,07,26,12,51,21.10
2013,07,26,12,52,21.20
2013,07,26,12,53,21.20
2013,07,26,12,54,21.20
2013,07,26,12,55,21.10
2013,07,26,12,56,21.10
2013,07,26,12,57,21.10
2013,07,26,12,58,21.10
2013,07,26,12,59,21.00
2013,07,26,13,00,21.00
2013,07,26,13,01,21.10
2013,07,26,13,02,21.10
2013,07,26,13,03,21.10
2013,07,26,13,04,21.10
2013,07,26,13,05,21.10
2013,07,26,13,06,21.10
2013,07,26,13,07,21.20
2013,07,26,13,08,21.20
2013,07,26,13,09,21.10
2013,07,26,13,10,21.10
2013,07,26,13,11,21.00
2013,07,26,13,12,21.00
2013,07,26,13,13,21.00
2013,07,26,13,14,21.10
2013,07,26,13,15,21.10
2013,07,26,13,16,21.10
2013,07,26,13,17,21.20
2013,07,26,13,18,21.20
2013,07,26,13,19,21.20
2013,07,26,13,20,21.20
2013,07,26,13,21,21.20
2013,07,26,13,22,21.20
2013,07,26,13,23,21.20
2013,07,26,13,24,21.30
2013,07,26,13,25,21.30
2013,07,26,13,26,21.20
2013,07,26,13,27,21.20
2013,07,26,13,28,21.10
2013,07,26,13,29,21.00
2013,07,26,13,30,20.90
2013,07,26,13,31,20.90
2013,07,26,13,32,20.80
2013,07,26,13,33,20.80
2013,07,26,13,34,20.80
2013,07,26,13,35,20.80
2013,07,26,13,36,20.70
2013,07,26,13,37,20.60
2013,07,26,13,38,20.50
2013,07,26,13,39,20.40
2013,07,26,13,40,20.30
2013,07,26,13,41,20.20
2013,07,26,13,42,20.20
2013,07,26,13,43,20.00
2013,07,26,13,44,19.90
2013,07,26,13,45,19.70
2013,07,26,13,46,19.40
2013,07,26,13,47,19.30
2013,07,26,13,48,19.20
2013,07,26,13,49,19.20
2013,07,26,13,50,19.20
2013,07,26,13,51,19.20
2013,07,26,13,52,19.20
2013,07,26,13,53,19.10
2013,07,26,13,54,19.10
2013,07,26,13,55,19.10
2013,07,26,13,56,19.20
2013,07,26,13,57,19.30
2013,07,26,13,58,19.30
2013,07,26,13,59,19.40
2013,07,26,14,00,19.50
2013,07,26,14,01,19.50
2013,07,26,14,02,19.40
2013,07,26,14,03,19.40
2013,07,26,14,04,19.40
2013,07,26,14,05,19.40
2013,07,26,14,06,19.40
2013,07,26,14,07,19.30
2013,07,26,14,08,19.20
2013,07,26,14,09,19.10
2013,07,26,14,10,19.00
2013,07,26,14,11,18.90
2013,07,26,14,12,18.80
2013,07,26,14,13,18.70
2013,07,26,14,14,18.70
2013,07,26,14,15,18.70
2013,07,26,14,16,18.70
2013,07,26,14,17,18.70
2013,07,26,14,18,18.70
2013,07,26,14,19,18.70
2013,07,26,14,20,18.70
2013,07,26,14,21,18.70
2013,07,26,14,22,18.60
2013,07,26,14,23,18.50
2013,07,26,14,24,18.30
2013,07,26,14,25,18.20
2013,07,26,14,26,18.20
2013,07,26,14,27,18.30
2013,07,26,14,28,18.40
2013,07,26,14,29,18.30
2013,07,26,14,30,18.30
2013,07,26,14,31,18.40
2013,07,26,14,32,18.40
2013,07,26,14,33,18.40
2013,07,26,14,34,18.40
2013,07,26,14,35,18.50
2013,07,26,14,36,18.50
2013,07,26,14,37,18.50
2013,07,26,14,38,18.50
2013,07,26,14,39,18.50
2013,07,26,14,40,18.40
2013,07,26,14,41,18.50
2013,07,26,14,42,18.50
2013,07,26,14,43,18.50
2013,07,26,14,44,18.60
2013,07,26,14,45,18.60
2013,07,26,14,46,18.50
2013,07,26,14,47,18.40
2013,07,26,14,48,18.40
2013,07,26,14,49,18.40
2013,07,26,14,50,18.40
2013,07,26,14,51,18.40
2013,07,26,14,52,18.40
2013,07,26,14,53,18.30
2013,07,26,14,54,18.40
2013,07,26,14,55,18.40
2013,07,26,14,56,18.40
2013,07,26,14,57,18.50
2013,07,26,14,58,18.50
2013,07,26,14,59,18.60
2013,07,26,15,00,18.60
2013,07,26,15,01,18.70
2013,07,26,15,02,18.70
2013,07,26,15,03,18.80
2013,07,26,15,04,19.00
2013,07,26,15,05,19.10
2013,07,26,15,06,19.20
2013,07,26,15,07,19.30
2013,07,26,15,08,19.50
2013,07,26,15,09,19.60
2013,07,26,15,10,19.70
2013,07,26,15,11,19.80
2013,07,26,15,12,19.90
2013,07,26,15,13,20.00
2013,07,26,15,14,20.20
2013,07,26,15,15,20.30
2013,07,26,15,16,20.40
2013,07,26,15,17,20.50
2013,07,26,15,18,20.60
2013,07,26,15,19,20.70
2013,07,26,15,20,20.80
2013,07,26,15,21,20.90
2013,07,26,15,22,20.90
2013,07,26,15,23,20.90
2013,07,26,15,24,21.00
2013,07,26,15,25,21.10
2013,07,26,15,26,21.20
2013,07,26,15,27,21.40
2013,07,26,15,28,21.50
2013,07,26,15,29,21.70
2013,07,26,15,30,21.90
2013,07,26,15,31,22.10
2013,07,26,15,32,22.20
2013,07,26,15,33,22.40
2013,07,26,15,34,22.60
2013,07,26,15,35,22.80
2013,07,26,15,36,22.90
2013,07,26,15,37,23.10
2013,07,26,15,38,23.20
2013,07,26,15,39,23.30
2013,07,26,15,40,23.30
2013,07,26,15,41,23.40
2013,07,26,15,42,23.40
2013,07,26,15,43,23.40
2013,07,26,15,44,23.40
2013,07,26,15,45,23.40
2013,07,26,15,46,23.50
2013,07,26,15,47,23.50
2013,07,26,15,48,23.60
2013,07,26,15,49,23.70
2013,07,26,15,50,23.80
2013,07,26,15,51,24.10
2013,07,26,15,52,24.20
2013,07,26,15,53,24.40
2013,07,26,15,54,24.60
2013,07,26,15,55,24.70
2013,07,26,15,56,24.80
2013,07,26,15,57,24.90
2013,07,26,15,58,24.90
2013,07,26,15,59,25.00
2013,07,26,16,00,25.00
2013,07,26,16,01,25.10
2013,07,26,16,02,25.10
2013,07,26,16,03,25.10
2013,07,26,16,04,25.10
2013,07,26,16,05,25.10
2013,07,26,16,06,25.10
2013,07,26,16,07,25.10
2013,07,26,16,08,25.10
2013,07,26,16,09,25.10
2013,07,26,16,10,25.10
2013,07,26,16,11,25.10
2013,07,26,16,12,25.10
2013,07,26,16,13,25.00
2013,07,26,16,14,25.00
2013,07,26,16,15,24.90
2013,07,26,16,16,24.80
2013,07,26,16,17,24.80
2013,07,26,16,18,24.70
2013,07,26,16,19,24.50
2013,07,26,16,20,24.40
2013,07,26,16,21,24.30
2013,07,26,16,22,24.20
2013,07,26,16,23,24.10
2013,07,26,16,24,23.90
2013,07,26,16,25,23.90
2013,07,26,16,26,23.80
2013,07,26,16,27,23.70
2013,07,26,16,28,23.60
2013,07,26,16,29,23.50
2013,07,26,16,30,23.40
2013,07,26,16,31,23.40
2013,07,26,16,32,23.40
2013,07,26,16,33,23.30
2013,07,26,16,34,23.30
2013,07,26,16,35,23.20
2013,07,26,16,36,23.10
2013,07,26,16,37,22.90
2013,07,26,16,38,22.80
2013,07,26,16,39,22.70
2013,07,26,16,40,22.60
2013,07,26,16,41,22.50
2013,07,26,16,42,22.40
2013,07,26,16,43,22.30
2013,07,26,16,44,22.20
2013,07,26,16,45,22.10
2013,07,26,16,46,22.10
2013,07,26,16,47,22.10
2013,07,26,16,48,22.10
2013,07,26,16,49,22.10
2013,07,26,16,50,22.10
2013,07,26,16,51,22.10
2013,07,26,16,52,22.00
2013,07,26,16,53,21.90
2013,07,26,16,54,21.80
2013,07,26,16,55,21.80
2013,07,26,16,56,21.80
2013,07,26,16,57,21.80
2013,07,26,16,58,21.70
2013,07,26,16,59,21.70
2013,07,26,17,00,21.70
2013,07,26,17,01,21.70
2013,07,26,17,02,21.70
2013,07,26,17,03,21.70
2013,07,26,17,04,21.70
2013,07,26,17,05,21.70
2013,07,26,17,06,21.80
2013,07,26,17,07,21.80
2013,07,26,17,08,21.80
2013,07,26,17,09,21.80
2013,07,26,17,10,21.80
2013,07,26,17,11,21.80
2013,07,26,17,12,21.80
2013,07,26,17,13,21.80
2013,07,26,17,14,21.80
2013,07,26,17,15,21.80
2013,07,26,17,16,21.80
2013,07,26,17,17,21.80
2013,07,26,17,18,21.80
2013,07,26,17,19,21.80